[[{"header":{"parameterUnit":"m.s-1","parameterCategory":1,"la1":30.2991,"la2":30.254,"lo1":-89.0895,"lo2":-89.0444,"dy":0.0017,"dx":0.0017,"nx":28,"ny":28,"refTime":"2023-10-15T03:00:00:Z","depth":0,"parameterNumber":2,"parameterNumberName":"U-component_of_WINDS"},"data":[0,0,0,0,0,0,0,0,0,0,0,0,0,0,0,0,0,0,0,0,0,0,0,0,0,0,0,0,0,0,0,0,0,0,0,0,0,0,0,0,0,0,0,0,0,0,0,0,0,0,0,0,0,0,0,0,0,0,1.552,1.552,0,1.5511,1.5511,1.5511,1.5506,1.5506,1.5505,1.5505,1.5495,1.5494,1.5494,0,0,0,0,0,0,0,0,0,0,0,0,0,1.5531,1.5531,1.552,1.552,1.552,1.5511,1.5511,1.5511,1.5506,1.5506,1.5505,1.5505,1.5495,1.5494,1.5494,0,0,0,0,0,0,0,0,0,0,0,0,0,1.5525,1.5531,1.552,1.5516,1.5516,1.5511,1.5511,1.5511,1.5506,1.5506,1.5505,1.5505,1.5495,1.5494,1.5494,1.5492,0,0,1.5493,1.5493,0,0,0,0,0,0,0,0,1.5525,1.5525,1.5517,1.5516,1.5516,1.551,1.5511,1.5505,1.5506,1.5509,1.5505,1.5505,1.5499,1.5499,1.5497,1.5492,1.5491,1.5493,1.5493,1.5492,1.5492,0,0,0,0,0,0,0,1.5526,1.5525,1.5517,1.5517,1.5516,1.5515,1.5514,1.551,1.5505,1.5509,1.5509,1.5508,1.5499,1.5497,1.5497,1.5491,1.5493,1.5492,1.5492,1.5492,1.5486,1.5486,0,0,0,0,0,0,1.5527,1.5525,1.5517,1.5516,1.5521,1.5514,1.5513,1.5512,1.5505,1.5504,1.5508,1.5508,1.5498,1.5497,1.5496,1.5495,1.5492,1.5492,1.5492,1.5485,1.5486,1.5486,0,0,0,0,0,0,1.5527,1.5526,1.5517,1.5521,1.5519,1.5514,1.5512,1.5511,1.551,1.5504,1.5503,1.5507,1.5498,1.5497,1.5494,1.5494,1.5492,1.5491,1.5485,1.5485,1.5486,1.549,0,0,0,0,0,0,1.5528,1.5526,1.5526,1.5521,1.5519,1.5515,1.5512,1.5511,1.5509,1.5509,1.5503,1.5502,1.5498,1.5494,1.5493,1.5493,1.5491,1.5485,1.5485,1.5486,1.549,1.5491,1.5491,0,0,0,0,0,1.5528,1.5527,1.5526,1.5525,1.5518,1.5515,1.5514,1.551,1.5509,1.5509,1.5505,1.5502,1.5495,1.5494,1.5493,1.5493,1.5485,1.5485,1.5486,1.549,1.5491,1.5491,0,0,0,0,0,0,1.5531,1.5526,1.5525,1.5522,1.5519,1.5514,1.5513,1.5511,1.5508,1.5507,1.5502,1.5501,1.5498,1.5495,1.5495,1.5492,1.549,1.5489,1.5493,1.5494,1.5494,1.5495,1.5491,0,0,0,0,0,1.5532,1.553,1.5525,1.5523,1.5522,1.5518,1.5516,1.5514,1.551,1.5509,1.5505,1.5501,1.5498,1.5496,1.5493,1.549,1.5489,1.549,1.549,1.5491,1.549,1.5489,1.549,1.5486,1.5486,1.5486,0,0,1.5532,1.5529,1.5528,1.5524,1.5521,1.5519,1.5517,1.5514,1.5513,1.5508,1.5505,1.5502,1.5498,1.5495,1.5494,1.5493,1.5491,1.5491,1.5491,1.5491,1.549,1.549,1.549,1.5486,1.5486,1.5486,0,0,1.5532,1.553,1.5528,1.5526,1.5523,1.552,1.552,1.5516,1.5514,1.5511,1.5508,1.5506,1.5501,1.5498,1.5496,1.5497,1.5494,1.5496,1.5498,1.5497,1.5498,1.5498,1.5498,1.5498,1.5496,1.5496,1.5496,0,1.5533,1.553,1.5528,1.5526,1.5524,1.5521,1.552,1.5518,1.5513,1.5512,1.5511,1.5505,1.5502,1.5499,1.55,1.5498,1.5497,1.5496,1.5498,1.5498,1.5498,1.5499,1.5499,1.5496,1.5496,1.5496,1.5496,0,1.5532,1.553,1.5529,1.5526,1.5524,1.5522,1.5519,1.5518,1.5516,1.5514,1.5512,1.5508,1.5505,1.5504,1.5502,1.5501,1.5501,1.5499,1.5497,1.5499,1.5499,1.5499,1.5497,1.5497,1.5497,1.5496,0,0,1.5532,1.5528,1.5528,1.5527,1.5524,1.5522,1.5521,1.5518,1.5517,1.5515,1.5513,1.551,1.5509,1.5506,1.5504,1.5504,1.5505,1.5502,1.5502,1.5502,1.5505,1.5505,1.5506,1.5504,1.5504,1.5504,1.5505,0,1.5531,1.5529,1.5527,1.5525,1.5523,1.5522,1.5521,1.5518,1.5517,1.5515,1.5513,1.5511,1.5509,1.5508,1.5508,1.5505,1.5505,1.5505,1.5502,1.5502,1.5502,1.5506,1.5506,1.5507,1.5505,1.5505,1.5505,0,1.5529,1.5528,1.5526,1.5524,1.5524,1.5523,1.5521,1.5519,1.5517,1.5516,1.5515,1.5513,1.5511,1.551,1.5508,1.5508,1.5507,1.5506,1.5506,1.5504,1.5503,1.5504,1.5508,1.5508,1.5505,1.5505,1.5505,0,1.553,1.5527,1.5526,1.5525,1.5523,1.5522,1.5521,1.552,1.5518,1.5517,1.5516,1.5514,1.5513,1.5512,1.5509,1.5509,1.5508,1.5506,1.5506,1.5506,1.5505,1.5505,1.5508,1.5506,1.5506,1.5506,1.5506,0,1.5529,1.5527,1.5526,1.5525,1.5524,1.5523,1.5522,1.5521,1.5519,1.5518,1.5517,1.5516,1.5513,1.5512,1.551,1.5509,1.5509,1.5507,1.5507,1.5507,1.5507,1.5506,1.5505,1.5506,1.5506,1.5506,1.5506,0,1.5528,1.5527,1.5526,1.5524,1.5524,1.5523,1.5522,1.5521,1.5521,1.5519,1.5519,1.5517,1.5516,1.5514,1.5511,1.551,1.5509,1.5509,1.551,1.551,1.551,1.551,1.5511,1.5511,1.551,1.551,1.551,0,1.5527,1.5526,1.5525,1.5525,1.5524,1.5523,1.5523,1.5522,1.5521,1.552,1.5519,1.5518,1.5517,1.5515,1.5513,1.5512,1.5511,1.5512,1.551,1.5511,1.551,1.551,1.551,1.5511,1.5511,1.5511,1.5511,0,1.5525,1.5525,1.5525,1.5524,1.5524,1.5523,1.5522,1.5522,1.5521,1.552,1.5519,1.5519,1.5517,1.5516,1.5515,1.5514,1.5512,1.5512,1.5512,1.5512,1.5513,1.5512,1.551,1.5512,1.5512,1.5512,1.5512,1.5512,1.5524,1.5524,1.5524,1.5523,1.5523,1.5523,1.5522,1.5522,1.5521,1.552,1.552,1.5519,1.5518,1.5516,1.5516,1.5515,1.5514,1.5514,1.5514,1.5514,1.5514,1.5514,1.5515,1.5515,1.5515,1.5515,1.5515,0,1.5522,1.5523,1.5522,1.5522,1.5522,1.5522,1.5521,1.5521,1.5521,1.552,1.552,1.5519,1.5518,1.5517,1.5517,1.5516,1.5516,1.5516,1.5516,1.5516,1.5515,1.5515,1.5517,1.5517,1.5517,1.5517,1.5517,1.5517,1.5521,1.5521,1.5521,1.5521,1.5521,1.552,1.552,1.552,1.552,1.552,1.5519,1.5519,1.5519,1.5518,1.5518,1.5518,1.5517,1.5518,1.5517,1.5516,1.5516,1.5515,1.5515,1.5518,1.5518,1.5518,1.5518,1.5518]},{"header":{"parameterUnit":"m.s-1","parameterCategory":1,"la1":30.2991,"la2":30.254,"lo1":-89.0895,"lo2":-89.0444,"dy":0.0017,"dx":0.0017,"nx":28,"ny":28,"refTime":"2023-10-15T03:00:00:Z","depth":0,"parameterNumber":3,"parameterNumberName":"V-component_of_WINDS"},"data":[0,0,0,0,0,0,0,0,0,0,0,0,0,0,0,0,0,0,0,0,0,0,0,0,0,0,0,0,0,0,0,0,0,0,0,0,0,0,0,0,0,0,0,0,0,0,0,0,0,0,0,0,0,0,0,0,0,0,-7.4102,-7.4103,0,-7.4276,-7.4278,-7.428,-7.4163,-7.4158,-7.4152,-7.4147,-7.432,-7.4329,-7.4339,0,0,0,0,0,0,0,0,0,0,0,0,0,-7.3661,-7.367,-7.4101,-7.4104,-7.4106,-7.4276,-7.4278,-7.428,-7.4164,-7.4158,-7.4151,-7.4145,-7.4317,-7.4328,-7.4339,0,0,0,0,0,0,0,0,0,0,0,0,0,-7.3846,-7.3673,-7.4101,-7.4068,-7.4067,-7.4275,-7.4278,-7.4281,-7.4165,-7.4157,-7.4149,-7.4142,-7.4313,-7.4327,-7.4341,-7.4589,0,0,-7.4385,-7.4391,0,0,0,0,0,0,0,0,-7.3835,-7.3862,-7.4071,-7.4071,-7.407,-7.419,-7.4186,-7.4384,-7.4167,-7.4128,-7.4147,-7.4138,-7.4283,-7.4299,-7.4349,-7.4597,-7.4604,-7.4386,-7.4395,-7.4401,-7.4405,0,0,0,0,0,0,0,-7.3823,-7.3854,-7.417,-7.4074,-7.4074,-7.4043,-7.406,-7.4223,-7.4248,-7.4131,-7.4123,-7.4145,-7.4281,-7.4335,-7.4352,-7.4607,-7.4386,-7.4398,-7.4407,-7.4413,-7.5067,-7.5075,0,0,0,0,0,0,-7.3814,-7.3844,-7.4165,-7.4175,-7.3931,-7.4057,-7.4077,-7.4159,-7.4246,-7.4251,-7.4152,-7.4139,-7.4315,-7.4336,-7.4358,-7.4654,-7.4401,-7.4414,-7.4422,-7.5058,-7.5069,-7.5078,0,0,0,0,0,0,-7.3805,-7.3843,-7.4158,-7.4008,-7.4045,-7.4074,-7.4167,-7.4167,-7.4221,-7.4262,-7.4265,-7.4204,-7.4309,-7.4338,-7.4533,-7.4659,-7.4421,-7.4434,-7.5048,-7.5062,-7.5074,-7.5249,0,0,0,0,0,0,-7.3793,-7.3841,-7.3937,-7.4011,-7.4054,-7.4332,-7.4175,-7.4176,-7.4247,-7.4232,-7.4311,-7.4316,-7.4305,-7.4512,-7.4547,-7.4674,-7.4445,-7.5037,-7.5054,-7.5069,-7.5232,-7.5267,-7.5296,0,0,0,0,0,-7.3777,-7.3978,-7.3942,-7.3982,-7.4175,-7.434,-7.4364,-7.4349,-7.4258,-7.4354,-7.438,-7.4314,-7.4639,-7.4533,-7.4571,-7.4705,-7.5029,-7.5049,-7.5068,-7.5218,-7.526,-7.5296,0,0,0,0,0,0,-7.3916,-7.3987,-7.3948,-7.4179,-7.4255,-7.432,-7.444,-7.4394,-7.4495,-7.4477,-7.4451,-7.447,-7.4675,-7.4709,-7.4589,-7.4949,-7.4819,-7.4848,-7.492,-7.496,-7.4992,-7.4979,-7.4457,0,0,0,0,0,-7.3974,-7.4104,-7.4158,-7.4356,-7.4396,-7.4413,-7.4483,-7.4466,-7.4542,-7.4572,-7.4612,-7.4687,-7.4806,-7.4884,-7.4996,-7.5236,-7.5251,-7.5347,-7.5378,-7.5404,-7.543,-7.5559,-7.5602,-7.5143,-7.5143,-7.5143,0,0,-7.4094,-7.4149,-7.4232,-7.4386,-7.4442,-7.4576,-7.444,-7.4587,-7.4685,-7.4594,-7.4782,-7.4814,-7.4895,-7.5114,-7.5213,-7.5149,-7.556,-7.543,-7.545,-7.5461,-7.5584,-7.5628,-7.5666,-7.5157,-7.5154,-7.5152,0,0,-7.4381,-7.4436,-7.4608,-7.4668,-7.4755,-7.4765,-7.4806,-7.4879,-7.4897,-7.5086,-7.502,-7.5135,-7.5341,-7.5402,-7.546,-7.5771,-7.5714,-7.5808,-7.5975,-7.6102,-7.6138,-7.617,-7.6281,-7.6322,-7.5832,-7.5833,-7.5833,0,-7.4519,-7.472,-7.4701,-7.4854,-7.4924,-7.4849,-7.5022,-7.508,-7.5199,-7.5248,-7.5175,-7.5432,-7.5481,-7.5714,-7.579,-7.5839,-7.5885,-7.5799,-7.6135,-7.6166,-7.6196,-7.6302,-7.6344,-7.5843,-7.5842,-7.5841,-7.584,0,-7.4885,-7.5025,-7.5153,-7.5273,-7.5356,-7.5518,-7.5523,-7.5609,-7.5584,-7.56,-7.5793,-7.5849,-7.5972,-7.6025,-7.6001,-7.6255,-7.6213,-7.6138,-7.6007,-7.6251,-7.635,-7.6391,-7.5859,-7.5855,-7.5852,-7.5849,0,0,-7.5265,-7.5373,-7.5421,-7.5474,-7.5566,-7.5673,-7.5831,-7.5952,-7.6027,-7.6111,-7.6242,-7.6418,-7.635,-7.6416,-7.6397,-7.6509,-7.6753,-7.642,-7.6422,-7.6481,-7.7036,-7.7093,-7.714,-7.6715,-7.6723,-7.6729,-7.703,0,-7.5558,-7.5837,-7.5825,-7.6085,-7.6214,-7.6145,-7.6282,-7.6353,-7.6372,-7.6483,-7.6503,-7.6629,-7.6529,-7.6568,-7.6675,-7.67,-7.6864,-7.6678,-7.6836,-7.6842,-7.682,-7.7192,-7.7252,-7.7534,-7.7068,-7.7075,-7.7079,0,-7.5938,-7.6038,-7.6312,-7.6385,-7.6438,-7.6563,-7.6673,-7.6781,-7.6858,-7.6864,-7.6939,-7.6902,-7.706,-7.6925,-7.7142,-7.7017,-7.708,-7.7102,-7.7113,-7.7127,-7.6976,-7.7218,-7.7623,-7.7665,-7.714,-7.7135,-7.7131,0,-7.6189,-7.6392,-7.6582,-7.663,-7.6719,-7.6808,-7.6849,-7.6919,-7.6993,-7.7089,-7.7137,-7.7249,-7.731,-7.7397,-7.7391,-7.7293,-7.7612,-7.7476,-7.7621,-7.7621,-7.7692,-7.7688,-7.8114,-7.7732,-7.7731,-7.773,-7.7729,0,-7.6519,-7.6689,-7.6696,-7.6813,-7.7002,-7.6985,-7.7171,-7.7202,-7.7265,-7.7386,-7.7331,-7.7445,-7.743,-7.7544,-7.754,-7.7721,-7.7749,-7.7757,-7.7754,-7.7763,-7.7762,-7.7805,-7.7786,-7.7741,-7.7739,-7.7737,-7.7735,0,-7.6832,-7.6843,-7.7046,-7.7115,-7.7136,-7.7272,-7.733,-7.744,-7.7455,-7.7608,-7.7643,-7.7666,-7.7797,-7.78,-7.7949,-7.7947,-7.8168,-7.8142,-7.8143,-7.8138,-7.8283,-7.827,-7.8753,-7.8815,-7.8392,-7.8396,-7.8399,0,-7.7042,-7.7172,-7.7255,-7.7333,-7.7381,-7.7507,-7.7583,-7.7571,-7.7652,-7.775,-7.7848,-7.7975,-7.8076,-7.8288,-7.8317,-7.8431,-7.8408,-7.857,-7.8425,-7.843,-7.8412,-7.8405,-7.8418,-7.8598,-7.8603,-7.8607,-7.861,0,-7.7414,-7.7414,-7.7526,-7.7643,-7.7735,-7.7825,-7.7908,-7.7974,-7.7971,-7.8065,-7.82,-7.8279,-7.8433,-7.8559,-7.867,-7.8709,-7.866,-7.8655,-7.8695,-7.8706,-7.8701,-7.8707,-7.8221,-7.8644,-7.8641,-7.8638,-7.8636,-7.8635,-7.7682,-7.7795,-7.7872,-7.7999,-7.8061,-7.814,-7.8248,-7.8277,-7.839,-7.8516,-7.8501,-7.8652,-7.8725,-7.8869,-7.8918,-7.9034,-7.8978,-7.9035,-7.905,-7.9065,-7.9081,-7.8682,-7.9054,-7.9053,-7.9052,-7.9051,-7.905,0,-7.8053,-7.8099,-7.8217,-7.8336,-7.8436,-7.8383,-7.8472,-7.8558,-7.8692,-7.8766,-7.8867,-7.9022,-7.9144,-7.9183,-7.9301,-7.9386,-7.9367,-7.9418,-7.9412,-7.9422,-7.9124,-7.9078,-7.9432,-7.9432,-7.9432,-7.9432,-7.9432,-7.9432,-7.8257,-7.8445,-7.8454,-7.8671,-7.8715,-7.8865,-7.892,-7.8992,-7.9051,-7.9228,-7.933,-7.9355,-7.9415,-7.9537,-7.9646,-7.9654,-7.97,-7.9761,-7.976,-7.9481,-7.9443,-7.9406,-7.9363,-7.9771,-7.9771,-8.0048,-8.0051,-8.0053]}]]